Theta_e
286 286 286 285 284 284 283 283 282 282 280 280 280 279 278 278 278 277 277 277 276 276 276 276 276 276 275 275 275 275 274 274 274 274 274 274 274 274 274 274 273 273 273 273 274 274 273 273 273 274 274 273 273 274 274 274 274 274 274 274 273 274 273 272 271 271 273 276 275 274 275 276 274 276 275 276 276 277 279 278 279 279 280 281 282
286 285 285 285 284 283 282 282 281 281 280 279 279 278 278 278 277 277 276 276 276 276 275 275 275 275 275 274 274 274 274 274 273 274 273 273 273 274 273 273 273 272 272 272 272 273 273 272 273 273 273 273 273 273 273 273 273 273 273 273 273 273 274 273 271 271 270 273 273 275 275 276 274 276 275 275 276 277 277 277 279 279 280 281 282
286 285 284 284 283 282 282 281 280 280 279 278 278 277 277 277 277 276 276 275 276 275 275 275 275 274 274 274 273 273 273 273 273 273 273 273 272 272 273 272 272 272 272 272 272 272 272 272 272 272 273 272 272 273 273 273 273 272 272 273 272 273 274 274 272 270 271 271 273 273 274 274 274 275 276 277 277 277 276 277 277 279 280 281 282
285 284 284 283 282 281 281 280 279 279 278 278 277 277 277 276 276 275 275 275 275 275 275 274 274 274 273 273 272 272 273 273 273 273 273 272 272 272 272 272 272 272 271 271 271 271 271 271 271 272 272 272 272 272 272 272 272 272 272 272 272 272 273 273 273 272 271 270 271 272 273 273 274 276 276 277 276 276 277 277 278 278 279 281 282
284 284 283 282 282 281 280 279 279 278 278 277 276 276 276 275 275 275 274 274 274 274 274 274 273 273 273 272 272 272 272 272 272 272 272 272 272 272 271 271 271 271 272 272 273 272 272 271 272 272 272 271 271 271 272 272 272 272 272 272 272 273 273 273 273 273 271 270 271 273 274 274 275 275 276 275 275 276 277 277 277 278 280 281 282
284 283 282 281 281 280 279 279 278 277 277 276 276 275 275 275 274 274 274 274 273 273 273 273 273 272 272 272 272 272 272 272 271 271 272 272 272 271 271 271 271 271 272 272 272 272 272 271 271 272 271 271 271 272 272 272 272 272 272 272 272 272 272 272 273 272 272 271 271 271 273 273 273 274 275 276 275 274 275 276 277 278 279 280 282
283 282 282 281 280 279 279 278 278 277 276 276 275 275 274 274 274 273 274 273 273 272 272 272 272 272 272 272 272 272 271 271 271 271 271 271 271 271 271 271 271 271 271 271 272 272 272 272 272 273 272 272 272 272 272 273 273 272 273 272 272 272 272 272 272 272 272 271 271 272 272 274 274 273 275 276 276 275 274 274 274 276 277 278 280
282 282 281 280 280 279 278 278 277 276 276 275 275 274 274 273 273 273 273 272 272 272 272 271 271 272 272 272 272 272 271 271 271 271 271 271 271 271 271 271 270 270 271 272 272 273 273 273 273 273 273 273 273 273 273 272 273 272 273 273 272 272 272 272 272 272 271 271 271 271 272 273 274 275 276 275 274 274 275 275 273 275 276 279 281
281 281 280 279 279 278 278 277 276 276 275 274 274 273 273 273 273 273 273 273 272 272 272 272 271 271 271 271 271 272 271 271 271 271 271 271 271 271 271 271 271 272 273 273 274 274 274 274 274 274 275 276 277 278 277 278 275 273 273 273 272 272 272 272 272 271 271 271 271 272 272 272 273 273 273 273 273 273 275 275 275 275 276 277 278
281 280 279 279 278 277 277 276 275 275 274 273 273 273 273 273 273 273 272 272 272 272 271 271 270 270 270 271 271 271 271 272 273 275 275 272 271 271 272 273 274 274 273 273 274 274 275 275 275 277 278 278 279 279 280 280 280 278 277 276 275 274 273 272 272 272 271 271 271 271 271 271 272 273 273 274 275 275 275 275 274 276 277 277 278
280 279 279 278 277 276 275 275 274 274 273 273 272 272 272 272 272 272 271 271 271 271 270 270 270 270 270 270 270 271 271 272 275 276 277 277 275 274 274 274 274 274 274 274 274 274 275 276 275 276 277 277 276 278 279 279 279 280 280 280 279 276 275 274 274 274 272 271 272 272 272 272 273 274 273 274 275 275 275 275 275 275 275 274 274
279 279 278 277 276 276 275 274 273 273 273 272 272 272 272 271 271 270 270 269 269 269 269 269 269 270 270 270 270 271 271 273 275 276 277 277 277 275 275 274 274 274 275 274 274 274 274 274 275 275 275 275 275 275 277 278 279 279 279 280 280 280 280 277 275 274 274 273 273 273 273 273 273 274 274 275 275 275 276 276 276 275 275 275 276
279 278 278 277 276 275 274 273 273 272 272 272 272 272 271 270 269 268 268 268 269 268 269 269 269 270 270 270 270 270 270 273 275 276 276 277 277 277 275 275 275 275 275 274 274 274 274 274 274 274 274 277 276 275 275 275 277 278 279 279 279 279 280 280 280 277 276 274 274 274 275 275 274 275 276 276 277 275 276 276 276 277 277 277 277
278 277 277 276 275 274 274 273 272 272 272 271 271 270 269 268 268 268 268 268 268 268 269 269 269 270 270 270 269 270 270 272 274 275 276 277 277 277 275 275 275 274 274 274 273 273 273 273 273 273 274 274 275 275 275 275 275 275 275 275 275 276 279 279 279 279 279 276 275 274 275 276 275 276 278 279 278 277 276 276 277 277 277 277 279
277 277 276 275 275 274 273 273 272 271 270 269 269 268 268 268 267 268 268 268 268 268 268 268 269 269 269 269 268 268 268 272 273 275 276 276 277 277 275 274 274 273 274 274 273 273 274 274 274 274 274 274 275 276 275 275 275 275 275 275 275 276 276 276 276 276 276 276 276 276 276 277 277 277 278 279 278 278 278 278 278 278 279 280 281
277 276 275 275 274 274 273 272 271 269 269 268 268 267 267 267 267 268 267 268 268 268 269 269 268 268 268 268 267 267 268 271 273 274 275 276 277 275 274 273 273 273 273 273 274 274 274 274 274 274 274 274 277 279 278 276 275 274 274 275 275 275 276 278 280 280 279 278 278 278 278 278 281 279 279 279 279 279 279 279 279 279 278 277 276
276 276 275 274 273 273 272 271 269 268 267 267 267 267 267 267 267 267 267 268 268 268 268 268 268 268 267 267 267 267 267 269 272 274 275 276 276 274 274 273 273 272 272 273 273 274 274 274 274 274 274 274 276 279 279 278 275 274 274 274 274 274 274 276 279 281 281 281 282 283 283 283 284 284 284 285 283 281 279 277 276 278 276 275 276
276 275 274 274 273 272 272 270 269 267 267 266 266 267 267 267 267 267 267 267 267 267 267 267 267 267 267 267 267 266 266 268 272 274 275 275 275 273 273 272 272 272 272 273 273 274 274 276 276 274 274 273 277 279 279 277 274 274 273 273 273 273 274 276 276 277 280 281 282 282 282 283 283 284 285 284 285 284 279 277 279 279 277 277 276
275 275 274 273 272 271 270 270 268 267 267 267 267 267 267 266 267 267 267 267 267 267 267 266 266 267 267 267 268 268 266 268 272 273 274 275 275 273 272 272 271 271 272 272 273 273 274 275 276 275 275 275 278 278 279 277 274 274 274 274 273 273 274 275 275 275 276 276 277 277 278 280 280 279 280 283 284 284 282 280 281 279 277 278 279
276 274 273 271 271 270 270 269 268 267 267 266 267 267 267 266 266 266 266 266 266 266 266 266 265 266 266 266 266 267 267 267 268 273 274 275 275 273 272 271 271 271 272 272 272 273 273 273 274 276 277 277 277 278 279 280 276 275 275 273 272 272 274 275 275 276 276 277 277 277 277 278 279 280 280 280 281 281 281 281 281 280 279 279 279
273 272 271 270 269 269 268 268 267 266 266 266 266 266 266 266 266 265 265 265 265 265 265 265 265 265 266 266 266 267 268 267 267 273 274 274 275 274 272 272 272 272 272 272 272 271 271 272 272 274 276 277 277 279 279 279 279 275 274 272 272 274 277 275 276 278 276 277 277 278 278 278 278 279 280 280 280 281 281 282 282 282 281 279 279
272 270 269 269 268 267 267 267 266 266 266 265 264 265 265 265 265 264 264 264 264 264 264 264 264 265 266 267 267 267 269 271 267 271 273 274 274 275 273 273 274 273 272 272 271 271 271 271 270 272 276 277 278 278 278 278 278 274 272 276 278 278 275 275 274 274 274 275 276 277 277 277 278 278 279 280 280 281 281 281 282 282 283 282 281
270 269 268 267 266 266 265 265 265 265 264 265 264 264 264 264 264 263 264 264 263 263 263 263 264 265 266 267 267 268 268 267 271 269 272 273 274 275 275 275 276 274 272 271 270 270 271 270 271 274 277 277 277 277 277 277 275 272 276 277 277 277 275 272 272 272 273 276 277 277 277 278 278 278 279 279 280 281 281 281 282 283 283 284 284
268 267 266 265 265 264 264 263 263 264 264 264 264 263 263 262 262 262 263 263 262 262 263 264 265 265 265 266 266 267 266 265 268 271 271 273 274 275 275 275 276 273 273 271 271 270 270 270 272 276 276 276 276 276 275 274 272 275 276 276 276 275 271 270 270 270 272 273 276 278 278 278 279 279 279 280 281 281 282 282 282 283 284 284 285
267 266 265 264 263 262 262 261 262 262 263 264 263 262 262 262 261 262 262 263 263 263 264 265 264 265 265 265 265 265 266 267 266 269 271 272 273 274 274 275 275 275 271 271 271 270 273 275 275 274 274 274 274 274 272 272 273 274 274 274 273 269 269 269 269 269 269 271 273 276 278 279 280 280 281 281 282 282 282 283 283 283 284 285 285
266 265 264 263 262 261 261 260 261 262 262 263 263 263 262 262 262 262 262 263 264 264 264 264 264 265 264 265 265 265 265 266 266 268 269 271 272 273 274 274 273 274 273 271 272 274 274 273 272 272 272 271 269 268 268 268 272 272 273 272 269 268 268 268 268 268 268 270 271 272 275 278 280 281 282 282 281 281 282 282 282 282 283 283 283
265 264 263 262 261 261 260 260 260 261 262 263 263 262 263 263 263 263 263 264 264 264 264 265 265 265 264 264 265 265 265 265 266 267 268 269 270 271 271 271 272 272 270 269 271 269 268 268 268 270 270 271 271 270 270 269 267 267 267 268 268 268 268 268 268 268 269 269 270 271 272 273 276 280 281 282 281 282 282 282 282 282 283 283 283
264 263 262 261 260 260 260 261 260 260 261 262 262 262 262 264 264 263 264 264 264 263 264 265 264 264 264 264 264 264 264 265 266 266 268 270 271 271 271 270 270 269 268 269 269 266 264 266 266 265 265 264 265 264 265 265 266 266 266 267 267 268 269 271 271 269 269 270 270 270 271 272 273 276 280 282 282 282 283 283 282 282 283 283 282
263 262 261 260 260 261 261 260 261 260 261 262 263 263 263 264 264 265 266 266 265 265 265 265 265 265 265 264 264 263 264 265 266 270 271 272 271 270 270 270 269 269 270 272 267 263 262 261 261 262 262 262 262 262 263 263 264 265 266 266 267 267 267 267 267 267 268 268 268 268 269 270 272 274 276 279 282 282 283 283 283 282 282 282 281
262 261 261 260 260 261 261 260 260 261 261 262 262 263 266 268 267 265 265 268 270 270 269 266 266 266 265 266 266 264 264 265 271 273 272 272 273 273 273 272 272 271 272 271 266 260 259 259 260 260 261 261 261 261 262 262 263 264 264 267 266 266 267 267 267 268 268 268 268 268 268 269 270 271 272 274 278 282 283 283 282 283 282 282 282
262 261 261 261 261 261 261 260 261 261 262 262 262 262 264 266 269 269 269 270 271 272 271 270 271 270 267 265 267 270 270 271 272 271 271 272 272 272 272 271 271 271 271 266 260 258 258 258 259 259 260 260 260 261 262 262 263 263 264 264 265 266 267 267 267 268 268 267 268 268 269 269 268 269 270 272 274 278 282 283 283 282 282 281 281
262 261 261 262 262 261 261 261 261 261 262 262 262 262 263 263 266 270 271 271 272 272 271 271 271 271 271 268 267 266 269 271 271 271 271 271 271 271 270 270 270 270 269 267 258 258 258 258 258 259 260 260 260 261 262 262 263 263 263 264 264 265 266 266 268 268 267 267 267 268 268 268 268 268 269 271 273 274 277 282 283 283 283 283 283
263 262 262 262 262 262 262 262 261 262 262 261 262 262 263 263 263 265 268 271 272 271 271 271 271 271 271 271 270 269 270 270 270 270 270 270 270 270 269 268 269 269 267 259 255 257 257 257 258 259 259 259 260 260 261 262 262 263 264 264 264 265 266 268 268 268 267 268 268 267 267 267 268 268 269 270 270 271 274 277 282 283 283 283 283
264 263 262 262 261 262 262 262 262 262 263 262 262 263 263 264 264 264 263 264 267 269 270 270 270 270 270 270 270 270 270 270 270 270 270 269 269 268 267 264 267 267 264 256 256 256 256 257 258 258 259 259 260 261 261 262 263 263 264 264 265 265 266 268 268 267 267 267 267 267 267 267 267 267 267 267 269 270 271 275 278 282 283 283 283
264 263 262 263 262 262 262 262 263 263 263 263 263 263 263 263 264 263 262 263 263 261 261 261 265 268 266 267 269 269 269 269 269 269 269 268 267 266 264 256 256 257 257 256 256 256 256 256 257 258 259 259 260 260 261 262 262 263 263 264 264 265 266 266 267 268 267 267 267 266 266 266 266 267 267 266 267 267 269 271 275 279 281 283 284
264 263 263 263 263 263 263 263 263 263 263 263 264 263 263 263 262 262 262 262 262 259 258 257 256 263 267 266 268 268 269 269 268 268 267 267 265 263 254 254 254 254 255 255 255 256 256 256 257 257 259 259 260 260 261 262 262 263 264 264 264 264 265 266 267 267 267 267 266 266 267 266 266 266 266 266 266 267 268 270 272 276 279 282 284
264 263 263 263 263 263 263 263 263 264 265 263 262 261 261 261 261 260 260 260 259 258 257 256 255 255 260 257 262 265 267 267 267 266 265 264 263 257 250 251 250 253 253 254 255 255 255 256 257 257 258 259 259 260 261 262 263 263 265 264 264 264 265 267 268 267 267 266 266 266 266 265 266 266 266 265 266 267 268 269 271 274 277 280 283
265 264 264 263 263 263 263 262 263 264 262 261 261 260 260 259 259 258 258 257 257 256 255 255 257 255 255 254 260 258 259 263 264 261 259 259 255 251 251 250 251 251 253 253 254 254 254 255 256 257 257 258 259 260 261 262 262 263 263 264 265 265 268 268 267 267 267 266 266 266 265 265 265 266 266 265 265 266 267 268 269 271 275 278 281
265 265 265 265 265 263 262 262 262 260 259 260 259 259 258 258 257 257 257 256 256 255 255 255 255 254 254 254 251 256 256 250 250 248 249 249 249 248 248 249 249 251 252 252 253 254 253 254 255 257 257 258 259 260 261 262 262 263 264 264 264 265 266 267 267 267 267 266 266 266 265 265 265 265 266 265 265 266 266 267 269 271 272 275 279
264 264 264 265 264 263 262 261 260 259 259 258 258 258 257 257 257 256 256 255 255 254 254 254 254 254 254 254 255 253 251 249 247 247 247 248 248 248 247 248 248 249 250 251 252 252 253 253 255 255 256 257 258 259 261 262 262 263 264 264 264 265 266 267 267 267 266 266 266 265 265 265 265 265 265 266 266 266 267 267 269 270 272 275 279
264 264 264 265 264 262 260 259 259 258 258 258 258 258 257 257 256 256 255 255 255 254 254 253 253 253 254 258 264 259 249 247 246 246 247 248 248 247 248 248 248 249 249 251 251 252 252 253 254 255 256 257 258 259 260 261 262 263 264 264 264 266 267 267 267 267 267 266 266 265 265 265 265 265 264 265 267 267 267 268 268 270 272 276 280
264 263 263 263 262 260 259 259 259 258 258 258 258 257 257 256 256 255 255 255 254 254 253 252 252 251 256 264 264 262 250 245 247 247 247 247 247 247 249 249 247 247 249 249 250 251 252 253 254 254 255 256 257 259 260 261 262 263 264 264 265 266 267 267 267 267 267 266 265 265 265 265 265 265 265 267 265 266 266 267 268 270 272 276 281
263 263 262 261 260 260 259 259 258 258 258 257 257 256 256 255 255 255 254 254 254 253 253 252 251 250 252 262 261 259 247 244 249 247 246 247 247 248 248 249 249 248 248 249 250 250 251 252 253 254 255 256 257 258 260 261 263 264 264 264 265 266 267 267 267 267 267 266 265 265 265 265 265 264 265 265 265 266 266 267 269 270 274 277 281
263 262 260 260 260 259 259 258 258 258 258 257 256 255 255 254 254 254 254 253 253 253 252 252 251 250 249 251 253 249 245 244 243 243 245 247 247 247 248 248 249 249 249 250 250 251 251 252 253 254 255 256 257 259 260 262 264 264 265 265 266 267 267 267 267 266 266 266 265 265 265 264 265 264 265 265 265 265 266 267 269 271 273 276 280
262 260 259 259 259 258 258 258 257 257 255 255 254 254 254 254 254 253 253 253 252 252 251 251 250 250 249 247 246 245 243 243 247 247 246 245 245 246 247 247 248 248 249 250 250 251 251 252 253 254 255 256 257 259 261 263 264 265 265 266 267 267 267 267 267 267 267 266 265 265 264 264 264 264 264 265 265 265 266 267 268 271 272 276 280
261 260 259 259 258 257 257 256 256 255 255 254 253 253 253 253 253 253 252 252 252 251 251 250 250 249 248 247 246 247 244 243 244 245 246 245 245 246 245 246 247 247 248 249 250 250 251 252 253 253 254 255 257 259 262 263 265 265 266 267 268 268 269 269 269 268 267 266 266 265 265 264 264 264 265 265 265 265 266 267 268 270 272 276 280
260 260 259 258 258 257 256 255 255 255 254 254 254 253 253 253 252 252 252 252 251 250 250 249 249 249 248 247 246 244 245 245 244 245 244 243 243 245 244 245 247 247 248 249 249 250 251 252 253 254 254 256 258 260 262 263 264 265 267 268 269 269 270 269 269 268 267 267 266 265 265 264 264 264 264 265 265 265 265 266 267 269 271 275 280
260 259 258 258 257 255 255 255 255 254 254 253 253 253 252 252 251 251 251 251 250 250 249 249 248 247 247 246 246 245 245 244 245 245 244 244 243 244 244 243 246 247 248 249 249 251 251 252 253 253 255 257 259 260 262 263 264 265 267 269 269 269 270 269 269 268 268 267 266 266 265 264 264 264 264 264 264 265 265 265 267 268 271 274 279
259 259 257 256 255 255 255 255 255 255 254 253 252 252 251 251 251 250 250 250 249 249 249 248 248 246 245 245 245 244 244 245 243 242 243 243 243 243 244 244 245 246 247 248 249 250 251 252 252 254 255 257 259 260 262 263 264 266 268 268 269 270 270 270 269 268 268 267 266 266 265 265 264 264 264 264 264 265 265 265 266 268 269 273 277
258 257 256 256 256 255 255 255 255 254 254 253 253 252 251 251 250 250 250 249 249 249 248 247 246 246 245 245 245 244 244 244 244 243 243 243 243 243 243 245 244 245 246 247 249 250 250 251 252 253 255 257 259 260 261 263 264 267 268 269 269 270 270 270 269 269 268 267 266 266 265 265 265 264 264 264 264 264 264 265 266 267 268 270 274
257 256 256 256 255 255 255 255 254 254 254 253 253 252 251 251 251 250 250 249 249 248 248 247 246 245 245 244 245 244 243 242 243 243 243 243 243 243 244 244 245 245 246 247 248 249 250 251 252 253 255 258 259 261 262 263 264 267 268 269 269 270 271 271 270 269 268 267 266 266 265 265 264 264 264 264 264 264 264 265 265 265 266 268 271
Wind_Speed
14 14 12 13 13 15 14 13 13 11 11 11 11 10 9 10 9 8 8 8 8 8 8 7 6 7 6 6 6 5 4 4 3 3 4 5 5 6 6 6 8 8 7 8 7 7 8 9 10 10 9 11 10 10 10 10 9 9 9 9 12 11 12 14 21 20 22 15 17 19 16 14 17 13 17 18 16 15 17 17 20 19 19 18 19
16 14 13 12 14 13 13 11 12 11 12 11 11 11 10 10 10 9 10 8 9 8 8 6 6 6 5 5 5 4 3 3 3 3 5 5 6 5 6 7 8 8 6 8 7 7 7 9 10 11 9 11 12 12 11 12 12 11 11 10 11 12 13 13 20 15 26 14 20 16 18 13 18 14 15 19 17 16 18 17 16 17 18 18 18
12 11 12 13 14 12 12 12 12 13 13 11 11 11 10 9 9 10 9 8 8 8 8 7 7 6 5 4 4 3 3 4 4 4 6 6 7 6 6 7 7 8 8 9 8 7 9 9 11 10 9 12 12 12 11 11 10 10 12 11 13 14 16 14 18 19 22 22 17 19 16 15 17 17 16 16 17 17 19 19 17 17 15 17 18
12 12 12 12 12 12 13 12 13 13 13 11 12 11 10 9 9 9 9 8 9 7 6 6 5 5 4 4 4 3 4 4 5 5 7 7 7 7 7 7 8 8 9 9 9 8 9 10 11 10 10 12 12 11 11 11 11 11 13 13 14 16 16 16 18 19 16 23 19 21 17 17 17 14 15 15 17 18 16 18 17 17 18 17 18
12 12 12 13 13 14 13 13 13 13 13 11 12 11 10 10 9 10 9 8 8 7 6 5 5 5 6 5 5 5 5 6 6 6 6 6 7 7 8 8 8 9 9 9 9 10 10 11 11 10 11 13 14 13 12 13 12 13 14 12 15 14 15 15 18 17 21 20 23 17 16 18 16 16 15 15 15 16 16 17 16 17 17 17 16
11 12 12 14 13 14 14 13 14 14 13 11 12 11 11 10 10 8 9 9 8 7 8 7 7 6 5 5 5 5 5 5 6 6 7 6 7 7 8 8 9 9 9 9 9 9 10 11 11 12 12 14 14 14 14 15 13 13 17 17 14 17 18 16 18 15 22 21 18 21 16 17 18 15 14 15 15 16 16 16 15 15 19 19 17
11 12 12 13 12 14 14 14 13 13 13 12 11 11 11 11 11 11 10 10 10 9 7 7 6 6 6 6 6 6 5 5 6 6 7 7 8 8 8 8 8 8 8 9 9 10 11 12 12 13 14 14 15 16 14 17 17 17 15 19 19 14 20 15 18 19 19 20 21 19 19 18 17 21 14 14 17 15 16 18 18 15 14 17 18
12 12 12 13 13 14 13 13 13 13 11 11 12 12 11 11 11 10 10 10 9 9 9 8 6 6 6 6 6 5 5 5 6 7 7 7 8 8 7 7 7 8 9 10 10 12 13 14 16 15 16 15 15 16 16 16 16 18 16 13 19 18 16 19 17 18 16 20 17 22 14 21 16 16 17 14 18 15 13 15 19 17 13 13 14
12 13 12 13 13 13 12 11 10 11 11 11 11 12 11 10 9 9 9 8 7 8 8 7 7 6 5 5 4 4 5 7 6 7 7 8 7 6 6 7 8 10 11 12 13 14 14 15 14 16 17 23 27 25 24 23 17 14 16 15 16 17 17 16 17 15 16 16 17 16 16 16 18 14 16 16 14 18 13 14 17 17 14 18 18
13 13 14 13 12 12 12 11 12 12 12 12 12 11 10 10 10 10 9 9 8 7 7 6 5 6 5 6 7 7 7 6 9 16 13 7 6 6 7 8 10 11 12 13 13 13 14 13 13 21 24 26 27 28 29 29 29 23 19 14 13 14 15 16 16 16 16 18 18 15 14 18 13 17 16 18 15 15 16 16 18 18 15 17 18
13 14 14 12 12 12 13 13 13 14 12 11 9 11 11 9 9 9 8 9 9 8 6 6 5 5 7 7 7 7 7 6 13 13 14 16 9 6 8 10 11 11 12 12 12 13 13 13 12 16 20 21 20 28 28 29 29 31 33 32 27 22 18 18 17 15 15 16 17 18 16 20 17 17 17 17 16 17 16 16 17 17 15 17 20
13 13 12 12 13 14 13 13 13 12 11 11 11 10 10 10 10 9 9 8 7 7 6 7 7 7 7 8 8 7 6 9 13 13 14 14 13 8 9 9 9 10 11 12 12 13 14 12 12 12 12 15 17 17 22 29 32 32 33 33 32 33 31 23 20 19 18 17 18 17 12 17 17 15 15 14 15 14 16 15 17 17 17 16 16
13 13 12 13 14 13 13 13 12 12 12 12 11 11 11 10 10 10 10 8 7 7 7 8 8 7 7 7 7 6 6 9 11 13 12 13 13 12 8 8 9 10 11 12 13 13 12 13 14 12 13 24 20 17 17 19 25 32 34 34 34 35 33 35 35 26 20 20 21 22 16 14 15 14 14 16 15 17 14 14 13 15 14 17 17
13 13 13 13 13 13 13 13 13 12 11 11 11 11 11 11 9 8 8 7 7 7 7 7 7 7 7 6 6 6 6 7 11 12 12 12 12 12 8 9 9 11 12 12 12 12 13 14 14 16 17 16 15 17 17 18 18 16 16 16 16 22 30 34 35 37 32 24 22 24 23 17 20 19 15 13 15 14 13 14 15 15 18 19 17
13 13 14 13 13 13 14 14 14 13 12 12 12 12 12 11 9 8 7 8 8 7 7 7 6 5 5 4 4 4 4 9 11 12 12 12 12 12 7 8 8 10 11 12 13 14 14 15 18 18 15 15 14 19 18 18 17 17 17 18 15 14 15 15 18 19 18 19 22 24 24 21 21 19 16 14 16 17 15 17 17 14 14 13 14
13 13 14 14 14 14 15 14 14 13 13 12 12 12 9 8 10 8 7 6 5 5 5 5 6 5 4 3 4 6 6 10 11 11 11 10 13 6 6 8 9 10 11 12 13 12 13 15 15 15 16 17 21 30 27 21 19 19 19 18 17 17 15 19 27 29 25 21 20 20 19 22 26 24 21 17 15 15 15 14 13 14 14 16 17
14 15 14 15 14 14 15 15 14 14 13 13 12 9 9 8 7 7 7 7 7 7 6 5 5 5 5 5 6 6 4 9 12 11 10 11 9 5 6 5 8 10 11 12 13 13 13 14 14 15 17 17 23 30 30 28 20 19 19 20 19 19 20 19 27 33 34 36 38 38 40 41 40 40 39 41 30 22 14 12 15 12 15 14 16
15 15 15 15 14 14 15 16 16 16 15 16 15 10 8 6 8 7 8 8 7 6 6 5 4 4 5 5 5 5 5 9 12 10 10 11 10 6 5 6 7 9 11 11 11 13 15 23 21 18 19 18 27 31 31 25 18 19 20 20 21 19 18 15 14 17 29 35 38 38 38 36 37 38 37 35 34 28 16 18 16 12 15 15 15
15 16 15 14 14 14 15 15 16 17 16 12 9 11 10 9 8 7 6 6 6 6 5 5 4 4 4 4 8 7 6 8 11 10 11 11 9 5 5 6 8 8 9 10 12 13 14 16 23 22 21 23 31 30 33 27 20 19 19 19 18 20 18 18 18 19 18 17 18 20 22 26 24 21 22 32 32 28 20 18 15 15 16 17 15
13 10 11 13 13 13 13 15 15 15 15 13 10 7 7 7 8 8 6 6 6 5 5 4 4 3 3 3 4 5 6 6 6 11 11 12 12 7 5 7 8 9 10 10 12 12 14 14 17 21 25 28 29 31 31 34 25 19 17 16 19 21 17 18 20 19 21 18 19 18 20 18 17 17 16 17 18 19 19 18 16 15 17 16 16
11 12 11 12 12 13 12 14 16 12 13 14 12 9 6 8 8 7 7 6 6 6 6 4 3 3 3 5 5 6 6 5 7 10 11 11 12 11 6 7 8 9 9 10 10 12 14 14 13 19 26 28 30 32 33 33 29 21 16 15 18 23 28 20 21 27 20 20 20 18 16 16 15 15 15 15 15 15 15 17 16 16 16 16 16
11 12 13 13 13 13 13 11 13 14 13 13 14 10 6 7 7 7 5 6 8 6 5 4 3 3 3 3 3 5 7 7 2 7 10 11 11 14 8 7 10 10 10 10 12 12 14 15 14 20 29 31 31 32 33 31 32 19 18 27 33 34 25 18 17 16 17 17 16 15 15 14 13 13 14 14 14 15 16 15 15 16 16 16 16
12 12 13 13 13 13 13 15 13 12 16 14 15 12 8 8 8 7 8 7 7 6 5 4 4 3 2 2 4 4 1 1 7 5 9 10 12 12 14 12 16 11 10 11 13 14 14 15 16 26 31 32 31 31 30 33 27 19 29 31 31 35 28 16 17 16 15 16 15 13 12 12 13 13 13 13 14 15 15 14 14 15 15 15 17
12 13 13 13 13 12 13 12 12 14 17 11 10 11 10 8 7 6 6 7 6 6 5 5 4 4 3 2 2 1 1 1 5 9 7 11 12 12 13 15 16 11 10 11 13 14 14 15 18 31 31 30 30 29 29 26 21 30 30 31 31 28 17 15 14 15 16 16 15 12 11 11 12 12 13 13 13 14 14 14 13 14 14 14 15
13 13 14 13 13 12 11 11 12 13 14 11 11 10 10 9 8 7 7 7 6 6 6 6 5 4 4 3 2 2 1 2 3 7 10 10 10 11 13 15 15 17 11 8 12 12 19 27 29 28 27 28 29 28 23 24 27 29 30 29 27 13 13 13 14 15 15 15 15 14 13 12 12 13 13 13 13 13 12 12 12 13 13 13 13
14 14 13 12 13 14 15 12 11 10 9 5 6 7 11 10 8 8 6 6 6 6 6 6 5 4 4 3 3 2 2 2 4 6 8 10 9 11 14 14 15 16 15 12 19 23 22 24 26 25 22 20 17 15 14 17 26 28 28 25 14 12 12 13 13 15 15 15 15 15 15 15 13 13 13 13 12 13 12 12 12 12 12 12 13
14 13 14 13 13 14 16 13 12 8 9 7 7 7 7 8 8 8 7 7 6 6 5 6 5 5 4 4 3 3 2 3 4 6 6 6 5 5 7 7 12 12 9 9 11 8 14 16 14 19 18 23 22 21 20 20 16 14 13 12 12 12 12 12 13 14 15 14 15 14 14 14 16 15 12 11 12 12 12 12 12 12 12 13 14
16 15 15 13 13 14 13 13 15 8 8 8 10 9 7 8 9 10 10 10 10 9 7 7 6 5 5 4 4 4 4 4 5 6 6 4 3 4 4 4 5 5 8 7 5 8 9 12 14 10 10 10 10 8 9 10 11 12 12 12 12 13 16 20 18 12 12 12 13 14 13 13 13 14 14 12 12 11 11 11 11 12 12 12 14
12 13 13 12 13 12 12 13 13 11 8 5 4 6 9 11 9 8 6 6 8 10 9 7 6 5 5 5 5 3 4 5 6 8 5 7 6 5 4 3 3 4 8 15 9 6 6 8 8 9 8 10 10 10 10 11 11 12 13 12 12 12 12 12 14 14 12 12 13 14 14 13 14 14 15 15 12 12 11 11 12 12 13 13 15
14 14 13 13 12 13 12 12 12 13 12 9 10 9 9 12 9 9 9 14 15 14 12 7 7 6 6 5 5 5 5 6 9 6 6 7 9 11 10 11 11 9 12 16 10 6 7 7 8 9 10 11 12 12 13 12 13 14 13 15 14 12 12 13 12 13 13 13 13 13 14 14 14 14 15 15 15 13 12 13 12 11 12 12 12
13 13 13 14 15 15 14 13 12 10 8 9 8 13 11 9 14 16 15 16 15 16 14 14 14 13 8 3 4 9 9 6 4 4 5 7 9 10 10 10 11 12 13 9 6 5 7 8 9 9 9 9 10 12 12 13 13 13 14 14 13 14 14 13 12 13 14 13 13 12 12 12 14 14 15 15 15 15 13 11 12 12 13 14 14
17 16 16 14 15 15 13 14 13 9 8 8 9 11 12 15 11 15 16 16 16 15 15 13 13 13 13 10 6 4 5 3 1 3 5 7 8 10 10 9 10 12 12 12 4 6 6 8 9 9 10 10 11 12 12 12 13 13 14 15 15 14 14 13 15 14 14 13 13 13 13 13 14 14 15 15 16 15 14 13 11 11 12 13 14
17 16 15 15 15 15 14 14 13 9 14 11 8 11 12 13 17 14 10 14 15 14 13 13 13 13 12 10 9 6 3 2 2 4 6 7 9 9 9 9 10 12 11 7 5 7 7 7 8 9 10 11 11 12 12 12 13 13 13 13 14 15 15 17 19 15 12 12 13 13 14 13 14 15 15 15 15 15 14 14 13 11 12 13 13
19 18 17 18 18 16 16 14 16 12 13 14 14 13 12 13 13 15 14 11 10 10 11 12 14 13 11 9 6 5 4 4 4 5 7 8 9 9 9 7 9 10 8 3 4 5 6 7 8 8 9 10 10 11 12 12 13 13 14 13 14 13 15 14 12 13 11 13 12 12 14 13 14 13 14 14 14 14 14 14 13 12 11 11 12
13 15 21 19 16 17 13 9 12 15 13 14 13 13 12 11 13 13 13 14 14 12 8 5 4 10 6 4 5 6 5 5 6 7 8 9 9 9 8 6 7 7 8 5 6 6 7 7 8 9 9 10 11 11 12 13 13 13 14 14 15 15 15 15 14 13 13 13 13 12 12 14 14 13 13 14 15 15 14 14 13 13 13 13 12
15 14 16 18 15 12 11 9 11 16 15 13 12 12 11 12 12 10 9 10 10 9 7 5 3 2 10 5 6 5 5 6 7 8 9 10 11 10 6 6 6 6 6 6 6 7 6 6 7 9 9 10 10 11 11 12 13 13 13 14 15 15 15 15 16 15 15 13 13 14 15 13 13 13 12 13 15 15 14 14 14 15 14 13 12
15 15 16 17 12 6 10 14 18 16 13 12 11 10 10 10 9 10 9 10 9 8 8 6 4 2 5 3 1 2 5 6 8 10 11 10 11 7 3 2 3 5 6 6 6 6 7 7 7 8 9 10 11 11 12 12 13 13 14 14 14 15 15 15 17 16 15 15 14 14 14 13 13 13 12 15 15 13 13 14 14 16 16 17 16
15 16 16 15 14 20 22 20 15 14 12 11 10 10 11 10 10 10 10 10 9 9 8 7 6 7 7 3 0 1 2 6 8 9 8 8 7 6 5 3 3 4 6 6 6 6 7 8 7 8 9 9 11 11 12 12 12 13 13 14 15 14 22 20 20 17 16 14 14 14 14 13 13 13 13 13 14 15 15 14 14 14 15 17 14
11 11 17 21 19 18 16 15 13 13 12 12 11 11 11 10 10 9 9 8 9 8 7 7 7 6 5 4 1 0 5 3 4 3 3 4 3 2 2 4 5 6 6 6 6 6 7 8 9 8 9 10 11 11 12 13 13 13 14 14 15 15 16 15 17 16 15 15 15 14 13 13 13 13 13 14 15 14 14 15 14 14 14 15 14
13 13 18 25 17 16 13 12 13 13 13 13 11 11 11 10 11 10 9 10 9 8 8 8 7 6 6 3 3 3 6 4 2 1 1 2 2 3 3 4 5 6 6 7 6 6 7 8 8 9 9 10 11 11 12 13 13 13 13 14 13 14 16 16 16 17 16 15 15 15 14 15 14 15 13 10 12 13 14 14 14 15 15 16 16
13 13 15 17 15 14 12 12 13 15 12 11 10 10 11 10 10 9 9 9 9 8 8 7 7 6 5 5 7 8 7 5 3 1 1 0 1 2 4 4 5 6 6 6 6 6 6 7 8 8 9 9 10 11 12 13 13 13 14 13 13 15 15 16 16 16 17 16 15 15 15 15 15 13 12 13 15 15 14 14 14 15 16 16 15
14 14 14 13 14 13 13 12 12 13 11 11 11 10 10 9 10 9 9 9 8 8 8 6 5 5 5 5 7 9 7 2 2 3 0 0 1 3 4 6 6 5 6 6 6 7 7 7 8 8 9 10 10 11 12 12 13 13 14 14 14 15 16 16 17 17 17 16 16 16 15 15 15 16 17 18 14 13 13 13 13 15 15 15 13
15 14 14 13 13 13 14 14 13 12 11 10 9 8 9 10 9 8 8 8 8 8 8 7 5 3 2 4 7 8 4 2 3 1 0 1 2 3 5 6 6 6 6 6 6 6 6 7 8 8 8 9 10 11 12 12 13 13 14 14 15 15 16 17 18 18 17 17 17 17 17 16 16 14 14 14 13 13 13 14 15 14 14 13 12
15 13 13 14 13 11 11 12 12 11 10 10 11 9 9 9 8 8 8 8 7 6 7 6 6 5 1 2 4 5 2 2 1 0 1 2 2 5 6 6 6 6 6 6 6 5 6 6 8 9 9 9 9 11 11 11 12 13 14 13 13 16 16 17 19 19 18 18 18 18 17 16 13 14 14 14 13 15 14 14 14 13 13 12 12
15 15 15 14 13 14 13 10 12 11 11 11 10 9 8 9 9 8 8 8 7 6 6 6 6 5 5 3 3 3 2 2 1 1 1 2 3 6 6 7 6 7 7 7 6 6 6 7 7 8 10 10 10 10 11 11 12 12 13 14 14 14 15 18 19 18 18 19 18 18 17 15 16 15 13 13 15 15 15 14 14 15 14 12 11
15 15 15 15 15 13 12 14 10 10 12 12 12 11 8 8 8 8 7 7 7 7 6 6 5 5 6 5 3 4 3 1 1 1 3 2 4 5 6 7 7 7 6 6 7 7 7 6 7 8 9 10 11 11 11 12 12 13 13 13 13 13 14 16 18 18 18 18 18 16 17 16 15 13 16 16 15 14 15 15 14 12 12 13 13
15 15 16 16 16 14 13 13 11 11 10 10 9 9 8 8 8 7 7 8 8 7 7 6 6 6 5 5 5 4 3 1 1 1 2 3 4 6 7 6 7 6 6 6 6 6 7 7 7 8 9 9 10 11 11 11 12 12 12 13 14 15 14 16 18 17 17 18 17 15 16 16 16 15 16 16 14 15 15 14 13 15 14 13 13
14 14 14 15 17 18 15 11 12 11 10 9 9 9 8 8 8 7 7 7 7 6 6 5 5 5 5 4 3 3 1 1 0 2 2 4 4 5 6 5 6 6 6 7 6 6 6 7 7 8 9 10 10 10 11 12 12 12 12 14 15 18 20 22 18 19 18 18 17 17 17 16 16 15 14 15 14 15 15 14 14 13 13 13 13
14 15 15 13 17 21 17 13 12 11 11 10 10 9 8 8 7 7 7 6 6 6 6 6 6 5 4 4 3 3 2 2 1 2 3 4 5 5 6 5 5 6 6 6 7 7 8 8 8 8 8 9 9 10 11 12 13 12 15 15 21 32 26 26 21 21 26 19 16 17 17 16 17 17 16 14 15 14 13 14 13 14 14 14 13
15 16 19 17 15 13 11 9 10 10 9 9 10 9 8 8 8 7 7 6 6 5 5 5 5 6 5 4 5 3 1 1 1 2 3 4 5 5 5 6 5 5 6 6 7 7 7 7 8 8 9 9 10 10 10 11 12 13 14 19 31 33 27 26 26 31 26 17 17 16 17 17 17 16 15 15 15 16 15 15 15 14 14 14 13
14 13 15 17 13 11 11 10 9 9 10 9 9 9 9 8 7 7 7 7 6 6 5 5 5 4 4 3 4 2 1 1 1 2 3 4 5 5 5 5 6 5 5 6 7 7 7 7 8 8 9 9 10 11 10 11 11 13 21 29 32 34 31 26 23 29 35 25 16 16 17 19 18 19 18 17 17 16 17 19 16 15 13 13 13
Wind_Direction
188 194 182 187 181 185 183 178 177 171 166 169 166 166 161 159 160 157 146 161 154 157 163 169 176 182 187 194 195 201 203 213 206 213 224 237 240 244 248 248 254 256 260 262 258 263 263 266 269 269 272 269 267 266 263 262 263 265 264 260 263 258 256 259 262 268 274 267 275 281 290 288 283 278 280 282 281 278 274 276 280 281 280 278 277
193 187 184 183 184 183 180 175 172 169 168 167 166 164 163 162 159 154 161 160 154 160 167 169 175 181 188 199 199 201 210 212 224 223 237 242 247 242 248 250 252 258 259 264 264 261 265 269 270 271 267 265 267 266 266 266 263 263 261 263 263 263 255 261 263 265 272 274 273 276 282 279 279 277 276 281 280 281 280 279 280 278 279 280 279
188 180 181 182 183 178 171 174 171 172 169 170 168 165 163 160 157 157 157 158 157 163 166 168 177 179 185 190 192 203 212 223 222 225 234 240 246 247 249 250 254 260 262 264 268 268 269 268 270 272 271 268 266 266 268 269 271 267 267 262 265 265 264 255 263 264 269 273 272 279 278 280 272 282 274 275 279 280 282 280 280 281 278 278 276
184 180 181 181 176 171 176 172 171 174 175 173 169 164 160 159 156 155 155 153 156 161 161 166 162 173 180 187 194 205 214 222 223 226 235 239 244 250 250 251 254 256 258 263 265 265 265 269 267 265 266 270 272 271 267 266 267 269 268 264 262 264 263 261 259 265 266 273 271 273 276 277 276 272 276 275 277 279 276 282 277 275 274 271 271
179 183 178 175 175 176 176 173 175 176 175 171 169 162 160 156 158 158 153 156 157 152 159 157 167 173 185 190 204 212 217 220 226 230 237 236 240 246 247 248 251 252 254 258 260 260 262 263 270 271 273 272 274 272 270 266 264 266 263 261 265 262 263 257 259 258 262 263 271 267 268 271 271 274 269 275 276 273 277 276 281 278 276 270 269
181 177 177 176 178 178 176 175 178 177 173 169 167 164 159 159 159 159 157 156 153 158 162 166 169 180 181 197 205 215 214 215 223 232 237 240 242 245 246 248 248 251 254 257 260 262 268 269 269 267 266 267 270 272 274 270 262 263 270 266 260 264 261 256 260 253 259 260 259 273 266 267 275 264 269 269 274 278 279 277 277 278 284 285 275
178 179 179 179 175 179 178 180 177 175 174 169 165 163 164 162 161 162 161 159 160 161 162 158 167 174 190 194 209 212 219 222 228 236 239 240 240 242 245 246 250 253 256 258 259 259 259 260 260 262 261 261 262 261 260 271 267 255 257 268 261 257 264 257 262 258 258 263 265 262 271 265 262 274 263 262 268 268 279 285 282 277 273 275 282
179 178 176 179 180 180 180 176 175 174 171 166 167 165 162 162 162 158 153 157 157 159 162 166 170 175 189 196 205 214 221 228 232 235 238 237 238 239 240 247 254 257 257 256 256 259 261 261 263 258 257 257 256 256 257 264 266 262 261 254 258 256 256 260 260 260 256 258 259 266 259 270 261 263 271 268 271 263 260 275 282 289 289 278 273
176 178 179 182 183 177 171 171 170 167 168 165 164 165 163 160 153 150 150 151 151 154 155 159 169 179 186 198 204 214 217 230 229 232 233 237 232 240 247 255 255 258 263 265 267 264 261 262 258 260 259 262 265 270 270 270 268 262 263 254 251 254 257 254 256 254 254 256 260 259 262 260 263 262 267 261 260 268 272 269 276 279 283 285 279
177 180 183 183 175 170 169 168 168 167 168 168 166 161 157 154 150 148 149 149 132 123 151 157 165 178 186 208 216 221 228 225 232 238 239 224 221 231 241 249 262 268 271 272 268 266 266 262 263 267 274 279 282 284 285 284 283 282 284 279 264 261 259 260 258 255 256 258 259 261 258 258 254 258 256 262 264 266 270 270 274 279 278 278 281
181 181 183 176 171 167 168 170 166 171 167 160 157 155 153 150 149 147 146 138 132 142 139 156 169 182 199 210 218 223 225 223 236 246 248 252 252 251 264 267 267 268 269 269 275 278 279 276 275 278 279 279 280 282 284 285 285 284 283 280 279 278 279 276 273 267 258 256 261 259 257 262 257 251 257 261 260 262 264 268 269 274 274 277 283
180 182 177 171 171 172 171 166 166 166 160 160 158 154 150 151 152 149 146 144 149 147 155 173 181 193 202 211 219 225 226 236 244 250 256 260 264 264 265 268 269 272 274 277 281 284 284 281 277 275 271 276 282 283 283 284 284 284 284 284 281 279 276 274 276 276 273 275 269 261 252 256 259 253 258 254 256 256 255 260 264 264 268 267 268
178 177 175 173 174 171 166 165 164 164 165 158 156 152 151 151 148 148 154 150 148 162 171 177 186 192 201 209 220 225 233 244 252 259 265 267 270 273 271 272 276 276 281 284 284 284 285 288 287 280 285 286 286 281 280 279 279 284 284 283 282 279 278 276 274 273 278 278 277 277 266 265 260 252 245 254 253 259 258 260 255 260 258 263 263
176 177 173 174 171 167 165 164 165 164 156 152 152 152 154 155 147 146 142 151 162 164 171 178 183 192 200 207 219 233 238 246 258 265 269 273 277 281 276 280 283 286 286 287 285 284 285 285 288 288 287 284 282 284 282 279 282 278 275 270 267 269 272 274 274 273 271 268 271 272 272 269 272 276 269 260 261 260 264 263 261 258 262 261 267
178 176 174 172 167 167 167 167 164 159 156 153 154 155 152 131 141 150 155 160 160 164 170 175 187 185 195 204 212 242 247 254 262 268 274 280 283 287 286 292 289 285 285 283 286 286 286 287 288 286 287 287 286 288 290 292 290 288 285 281 272 262 262 256 263 260 258 257 258 261 266 263 261 262 259 251 249 255 252 257 261 262 264 267 266
177 173 176 175 172 170 167 165 161 157 156 155 153 145 142 151 152 150 146 145 145 151 163 169 181 180 177 185 222 245 251 258 267 272 280 285 289 291 290 285 286 288 288 288 286 288 286 288 287 288 288 289 290 295 298 298 293 289 285 282 283 281 274 275 274 276 273 268 261 259 260 259 259 258 256 251 250 250 251 254 258 258 261 264 264
182 180 179 175 173 169 167 163 159 158 157 156 158 149 151 148 143 141 142 150 155 161 165 171 171 174 189 198 215 240 253 264 270 276 282 288 292 275 271 275 285 289 291 292 292 289 290 290 292 292 293 291 295 299 299 301 298 296 292 288 281 277 274 272 271 272 274 274 272 271 270 269 268 264 264 262 257 252 248 250 249 247 253 255 258
185 181 181 176 171 167 167 163 161 162 163 166 164 155 147 131 144 149 148 150 156 162 155 152 170 180 193 198 209 235 251 261 269 279 286 287 292 288 284 277 277 289 292 292 291 292 291 295 296 295 295 295 297 300 303 305 297 291 285 280 279 275 275 274 272 273 270 271 271 271 271 272 273 275 275 271 265 259 250 256 261 259 253 249 254
184 184 180 170 167 166 165 165 164 164 167 161 142 146 151 149 146 138 141 138 139 145 143 160 170 185 197 196 226 239 247 259 275 286 287 289 295 287 283 283 283 287 294 292 295 295 295 296 296 295 296 297 301 303 304 303 294 290 293 293 291 292 293 294 292 286 280 272 265 263 263 263 264 264 266 269 269 268 260 257 261 258 259 259 258
181 167 160 163 162 163 163 164 164 163 160 154 149 123 127 128 142 139 131 119 127 130 148 161 174 183 192 212 230 243 250 254 264 283 287 293 298 297 286 289 292 291 293 293 297 298 300 298 297 299 301 302 303 304 303 305 305 303 301 297 298 298 301 291 285 282 281 275 270 263 260 259 258 258 257 257 255 253 255 252 250 250 254 259 258
161 161 155 155 159 161 161 163 159 158 154 151 149 135 127 133 127 128 131 132 134 141 155 163 164 187 213 225 223 234 230 246 258 278 290 295 298 303 290 289 291 292 291 299 300 302 304 302 302 303 305 306 307 308 310 311 310 306 303 303 297 296 300 298 298 299 291 283 274 267 261 255 252 251 252 251 249 248 249 248 245 245 247 251 252
150 151 156 156 156 157 157 155 156 154 149 141 137 124 116 120 127 123 119 129 140 139 140 147 174 208 216 222 221 237 247 257 262 287 290 295 299 306 303 294 304 307 309 303 304 304 304 305 302 303 308 311 313 316 315 313 313 315 307 302 304 309 311 310 306 297 287 279 271 261 255 247 245 245 246 248 245 245 246 246 244 243 241 243 245
150 151 152 154 157 156 156 154 154 151 134 136 128 134 130 124 120 123 131 132 134 137 149 167 181 200 209 222 226 226 227 280 286 284 290 297 301 306 309 313 316 315 309 305 309 308 307 303 299 303 311 315 317 315 316 316 317 309 308 309 311 312 315 310 301 299 296 291 276 260 253 247 245 247 245 248 246 243 245 244 245 245 244 245 242
147 150 154 156 152 154 154 151 148 149 138 136 123 126 132 125 124 132 129 134 141 147 160 172 181 180 200 211 208 198 234 238 287 288 289 298 306 309 314 317 316 315 312 310 309 307 307 304 307 313 317 316 316 318 319 319 314 313 314 315 317 317 311 303 303 301 301 302 298 277 262 252 250 251 248 248 249 245 245 245 245 246 246 250 250
151 157 157 156 154 149 145 147 149 146 136 142 133 129 127 134 129 137 137 145 147 153 163 161 163 180 181 193 214 217 200 253 255 273 289 305 309 312 318 318 319 318 314 310 309 302 304 311 315 317 316 318 318 319 320 318 318 318 318 318 320 313 310 306 305 307 305 306 308 304 285 268 258 255 254 252 251 251 250 250 247 247 249 251 253
159 160 157 155 153 148 144 145 147 139 138 125 112 127 139 143 132 137 142 145 153 154 154 150 165 172 177 206 211 207 226 234 252 259 267 281 282 314 320 322 319 316 316 314 309 310 315 319 318 316 317 317 319 318 316 318 321 322 321 321 315 311 310 311 307 309 307 308 308 309 312 306 283 265 255 249 247 247 248 249 251 250 248 249 251
159 158 159 156 152 156 154 154 153 148 145 134 130 125 124 125 127 134 147 150 151 155 154 162 169 170 186 198 195 217 222 240 250 259 263 263 256 295 312 305 314 319 315 289 294 317 322 318 314 317 317 317 317 314 313 315 316 318 319 316 313 311 312 312 310 308 306 305 308 308 305 303 306 293 262 249 244 244 242 247 250 254 252 250 249
166 167 162 158 161 164 161 152 151 143 153 150 141 139 143 143 144 155 161 163 158 160 163 167 171 176 179 188 192 208 232 235 248 257 261 254 280 287 297 296 320 320 313 297 332 332 315 308 312 308 307 307 309 303 304 308 312 316 317 316 312 313 316 317 313 303 300 301 300 300 300 308 308 308 297 268 251 246 241 242 247 255 254 256 256
159 158 160 159 164 168 162 162 157 148 133 130 102 139 148 150 142 146 160 157 158 152 156 158 161 164 168 192 191 207 220 241 247 262 296 321 324 326 313 309 319 300 312 331 344 322 303 309 306 314 316 319 321 319 320 320 321 321 319 320 319 317 319 324 322 317 312 313 312 310 310 311 310 311 309 301 275 253 241 243 243 250 256 250 251
161 167 167 168 165 165 164 161 158 155 151 144 139 127 135 137 145 143 145 160 157 156 151 154 155 156 178 204 183 193 215 237 262 309 326 329 337 338 340 342 337 330 337 345 344 321 318 318 319 321 324 329 328 327 328 328 326 327 325 328 323 317 322 324 321 316 315 313 310 310 311 313 312 311 308 302 300 282 252 242 247 246 254 254 257
169 168 170 177 175 171 164 158 161 156 153 143 139 133 136 149 150 152 152 158 161 162 158 164 172 175 180 200 229 217 234 263 315 326 335 348 345 352 350 347 342 344 352 356 344 328 324 325 323 324 325 323 324 324 326 326 327 325 326 325 322 319 320 322 323 322 319 312 311 308 308 310 308 307 305 302 301 300 289 253 243 244 246 251 254
174 179 178 173 169 170 166 159 154 145 144 142 141 137 139 130 144 157 160 160 160 156 154 160 166 175 176 173 184 242 237 249 330 1 5 1 3 1 358 352 349 352 2 360 329 326 329 325 324 327 327 327 326 324 325 325 324 325 323 324 323 322 321 320 323 321 313 313 313 314 314 310 308 305 301 301 303 301 298 286 252 243 241 244 246
177 173 172 170 170 169 165 163 161 149 151 148 145 144 146 149 143 139 155 160 154 150 152 158 160 162 163 169 173 186 185 137 82 50 31 24 18 11 4 355 358 1 5 2 343 323 321 319 321 321 326 325 324 327 325 323 323 322 323 321 320 319 315 316 318 315 312 313 317 314 312 307 305 304 302 300 300 299 300 297 288 257 248 249 251
179 172 172 172 168 172 171 166 160 157 154 154 156 156 159 155 151 147 143 154 152 143 142 149 154 150 150 152 155 144 132 120 90 64 50 37 28 18 16 357 352 5 15 352 328 323 319 319 320 321 321 321 322 324 323 322 323 320 320 319 318 313 310 311 317 317 312 316 315 311 310 306 304 304 301 301 296 295 293 293 293 286 264 253 254
177 180 174 168 171 173 169 150 153 157 158 157 156 156 155 155 151 151 155 158 154 147 152 121 124 146 133 123 139 136 124 107 87 69 60 47 33 24 21 11 4 350 357 358 340 320 319 319 319 322 324 325 326 325 322 321 320 322 321 320 321 318 316 317 319 320 320 318 316 312 309 308 306 300 298 299 298 294 291 290 290 287 283 271 261
175 172 175 177 173 170 161 158 150 143 151 153 153 153 150 149 150 149 147 146 144 142 137 154 189 134 134 124 134 126 118 107 94 74 67 56 42 34 32 12 357 343 331 318 309 308 304 306 315 318 321 321 321 320 319 318 319 318 318 319 321 319 316 317 322 324 322 318 313 312 311 307 305 302 297 293 288 284 283 285 285 285 282 278 269
178 177 178 182 177 144 126 105 136 147 145 141 141 140 141 139 134 137 143 145 143 139 141 145 124 97 87 7 11 34 103 110 94 73 59 54 50 49 47 3 310 302 299 299 301 312 317 318 316 315 320 321 319 317 317 317 317 317 318 319 318 318 314 319 325 322 321 320 319 315 311 306 306 302 295 294 293 287 284 284 285 285 284 282 282
182 182 183 174 155 107 130 144 149 142 135 136 136 140 138 137 139 140 142 141 143 143 147 154 150 150 146 210 201 258 90 75 73 51 38 35 33 28 11 318 296 289 293 302 311 314 315 313 318 320 320 317 317 318 318 317 318 319 319 318 320 315 318 322 323 321 319 318 318 316 313 308 306 305 300 290 291 292 288 285 284 287 287 286 283
180 165 158 155 156 157 155 151 148 141 138 136 140 140 139 137 136 136 139 139 140 142 143 141 140 148 167 184 240 118 96 52 58 48 23 21 16 352 312 303 302 305 304 308 316 321 317 316 318 319 316 318 316 317 317 318 318 318 318 318 320 317 322 328 326 325 323 323 321 318 314 310 308 307 304 298 295 289 285 285 284 283 284 286 285
161 157 157 155 156 154 151 147 142 143 147 141 140 138 134 141 144 144 142 141 145 146 148 147 151 159 181 171 199 135 103 115 120 125 54 20 347 324 311 308 306 297 306 312 311 310 310 310 313 315 314 314 315 316 317 317 317 316 317 320 315 316 324 327 326 325 324 324 322 320 317 315 314 309 296 284 287 289 292 290 288 285 282 280 280
159 153 155 158 149 144 135 138 140 135 136 139 139 140 144 141 139 138 138 142 143 145 147 150 150 172 179 213 182 142 134 150 153 122 108 64 308 308 307 293 294 300 299 300 301 302 302 305 310 310 311 310 313 314 316 317 317 319 320 319 317 318 322 326 325 325 323 324 324 322 319 316 314 312 304 302 300 296 288 287 286 284 281 278 277
154 151 153 150 145 139 138 139 140 138 135 139 142 143 140 139 138 139 142 143 142 142 138 141 153 163 241 192 136 128 121 151 125 115 69 281 286 284 284 282 274 270 279 285 292 298 303 308 306 308 308 312 314 314 316 316 318 320 320 320 319 320 326 329 329 327 327 324 325 322 320 317 316 313 309 307 301 298 296 290 282 280 278 277 281
151 150 147 143 146 149 145 142 138 138 135 136 131 127 128 131 134 135 135 134 137 139 141 141 149 157 260 153 128 115 103 113 99 97 145 300 289 286 285 283 284 282 278 277 275 279 290 297 302 303 307 307 308 311 314 314 316 319 320 320 318 322 328 331 332 331 329 327 326 325 322 320 318 316 313 310 302 298 289 289 286 281 279 284 294
149 143 140 140 141 135 134 134 137 137 136 129 124 129 131 127 127 129 131 130 136 139 140 138 143 149 154 44 80 95 111 88 84 105 273 289 290 290 289 291 295 298 298 294 297 297 303 300 304 305 304 305 308 308 308 311 316 318 322 318 318 324 329 336 335 334 332 330 328 328 327 320 311 314 309 306 305 301 299 292 289 287 293 297 300
144 143 144 141 142 134 133 135 132 129 127 128 127 127 127 128 130 128 129 132 136 135 134 139 141 146 144 147 140 140 139 133 104 116 279 269 278 287 293 297 301 304 305 307 310 314 310 309 305 309 312 313 313 313 312 315 317 321 320 319 323 326 333 337 337 332 331 330 328 328 326 326 323 319 309 308 311 306 301 300 301 302 302 300 303
145 143 142 139 136 134 131 107 125 125 131 128 126 122 126 126 126 130 133 135 140 141 141 142 147 154 161 166 170 149 149 133 181 230 260 276 279 286 288 294 298 298 297 303 309 311 308 305 309 308 311 310 312 314 316 317 320 322 320 320 327 324 328 335 336 336 335 334 331 328 327 323 321 316 316 315 310 309 307 306 301 297 297 299 300
145 144 143 141 140 133 133 131 132 131 128 131 129 130 130 131 130 127 132 138 142 142 142 147 154 164 166 172 167 164 151 139 175 245 257 267 276 282 288 294 296 297 305 306 307 306 309 310 310 310 309 308 310 313 318 321 321 322 321 326 330 331 333 339 340 339 338 335 331 329 329 328 324 323 317 316 314 314 315 309 310 307 307 305 304
145 143 142 136 125 114 128 132 128 128 128 130 129 129 128 129 129 132 134 139 136 137 138 146 155 159 159 173 170 153 136 140 194 246 269 275 279 280 289 291 296 303 309 312 312 312 311 310 310 313 313 313 316 318 319 322 321 321 325 333 335 334 335 341 343 343 343 338 333 332 331 331 329 325 321 321 320 322 320 320 319 317 314 311 309
139 139 131 124 125 122 130 138 138 139 137 133 129 127 131 130 132 131 139 137 139 141 150 154 156 159 168 172 153 138 123 121 239 278 279 279 285 287 287 291 300 307 314 314 313 315 314 313 313 314 313 314 314 318 320 320 322 324 333 336 335 334 337 348 349 346 345 342 338 335 333 333 333 331 328 327 327 326 320 322 323 321 317 314 311
132 133 130 128 130 123 102 114 124 127 129 130 131 131 132 130 133 138 139 136 132 139 145 145 153 165 167 163 148 138 120 139 232 271 277 282 286 291 295 305 311 314 314 312 313 311 311 312 316 315 319 317 320 320 321 321 320 329 339 337 335 337 341 351 351 351 350 346 342 338 337 335 334 334 336 335 336 332 333 335 331 329 323 319 317
125 118 98 105 114 124 125 115 100 120 130 132 132 133 135 137 138 139 140 144 148 150 147 151 153 155 163 164 145 132 139 178 230 252 267 283 285 293 303 312 317 317 312 310 311 309 312 316 320 320 320 324 324 323 322 325 319 333 343 342 339 339 345 355 355 354 351 349 343 343 342 341 339 341 342 342 343 343 340 338 335 333 330 322 318